Location: Bad Salzschlirf
(50.3750°N, 9.3000°E)
Time: 05:29:53
(UTC+02:00)

ISS - Pass Details

Date: 26 March 2020
Orbit: 417 x 423 km, 51.6° (Epoch: 29 March)

Event Time Altitude Azimuth Distance (km) Brightness Sun altitude
Rises 21:27:35 0° 283° (WNW) 2,362 1.1 -24.4°
Reaches altitude 10° 21:29:40 10° 284° (WNW) 1,497 -0.1 -24.7°
Enters shadow 21:31:34 31° 286° (WNW) 758 -2.0 -24.9°
